Zurück zum Katalog

STARLINK-34702

AktivKommunikationVLEO
NORAD 64908·PAYLOAD·🇺🇸 United States

Gestartet Jul 26, 2025 von Cape Canaveral Space Force Station

Loading…

Nächste Überflüge (nächste 24 Stunden)

TLE

AktuellSource: CelesTrak SupGP

Epoche: Sep 14, 2026, 22:55 UTC

1 64908C 25157E   26257.95534722 -.00030990  00000+0 -99622-3 0  2576
2 64908  53.1576 185.0368 0001216  88.9213 231.4728 15.31728543    15

Verfolge STARLINK-34702 in Echtzeit mit AllMySat

Download on the App Store